Regional Weather Roundup
Issued by NWS Goodland, KS

Home | Current Version | Previous Version | Text Only | Print | Product List | Glossary Off
Versions: 1 2 3 4 5 6 7 8 9 10 11 12 13 14 15 16 17 18 19 20 21 22 23 24 25 26 27 28 29 30 31 32 33 34 35 36 37 38 39 40 41 42 43 44 45 46 47 48 49 50

000
ASUS43 KGLD 270808
RWRGLD

GOODLAND FORECAST AREA HOURLY WEATHER ROUNDUP
NATIONAL WEATHER SERVICE GOODLAND KS
100 AM MST MON FEB 27 2017

...OFFICIAL OBSERVATIONS...

CITY           SKY/WX    TMP DP  RH WIND       PRES   REMARKS
GOODLAND KS    CLEAR     22   9  57 S14       29.83F WCI   9
HILL CITY KS   CLEAR     18   8  65 SE3       29.93R
IMPERIAL NEB   CLEAR     20  11  68 S6        29.86S
MCCOOK NEB     CLEAR     22  10  60 CALM      29.89S
AKRON CO       CLEAR     19  10  68 SE10      29.76F WCI   7
BURLINGTON CO  CLEAR     23  10  57 S15       29.82F WCI  10
LIMON CO       CLOUDY     8   3  80 N7        29.78F
$$

...UNOFFICIAL OBSERVATIONS...

CITY           SKY/WX    TMP DP  RH WIND       PRES   REMARKS
LENORA KS        N/A     24  32 100 SE6         N/A
SHARON SPRINGS   N/A     23  13  64 S12         N/A  WCI  12
TRENTON NEB      N/A     22  32 100 CALM        N/A
KIT CARSON CO    N/A     25  11  54 CALM        N/A
YUMA CO        FAIR      18  10  73 SE7       29.81F
$$




USA.gov is the U.S. government's official web portal to all federal, state and local government web resources and services.